This demonstration page uses our WeatherBlox Daily Observations layout. Learn more.

Left ArrowRight Arrow

44.8408, -93.29828

Hourly Observations for July 2, 2022

Temp ( °F °C ) Dew Point ( °F °C ) Humidity (%) Winds ( mph kmh ) Pressure ( in mb ) Visibility ( mi km ) Precip ( " mm )
12:53 am 00:53 Clear 72 22.2 49 9.4 44 44 SSW 6 9 29.97 1015 10 16 0.00 0.00
1:53 am 01:53 Clear 70 21.1 49 9.4 47 47 SSW 3 6 29.97 1015 10 16 0.00 0.00
2:53 am 02:53 Clear 69 20.6 50 10 51 51 Calm 29.97 1015 10 16 0.00 0.00
3:53 am 03:53 Clear 69 20.6 50 10 51 51 SSW 5 7 29.95 1014 10 16 0.00 0.00
4:53 am 04:53 Clear 68 20 51 10.6 55 55 WSW 3 6 29.96 1014 10 16 0.00 0.00
5:53 am 05:53 Mostly Sunny 67 19.4 52 11.1 59 59 Calm 29.96 1015 10 16 0.00 0.00
6:53 am 06:53 Partly Cloudy 69 20.6 53 11.7 57 57 Calm 29.97 1015 10 16 0.00 0.00
7:53 am 07:53 Mostly Cloudy 72 22.2 54 12.2 53 53 Calm 30.00 1016 10 16 0.00 0.00
8:53 am 08:53 Mostly Cloudy 72 22.2 53 11.7 52 52 NE 7 11 30.00 1016 10 16 0.00 0.00
9:53 am 09:53 Mostly Cloudy 73 22.8 54 12.2 51 51 N 6 9 30.00 1016 10 16 0.00 0.00
10:53 am 10:53 Cloudy 71 21.7 56 13.3 59 59 NNE 8 13 30.03 1017 10 16 0.00 0.00
11:53 am 11:53 Cloudy 70 21.1 58 14.4 66 66 WNW 5 7 30.07 1018 8 13 0.00 0.00
12:53 pm 12:53 Cloudy with Light Rain 68 20 59 15 73 73 Calm 30.09 1019 8 13 0.01 0.25
1:53 pm 13:53 Mostly Cloudy 69 20.6 60 15.6 73 73 SW 5 7 30.08 1019 9 14 0.02 0.51
2:53 pm 14:53 Mostly Cloudy 70 21.1 61 16.1 73 73 Calm 30.06 1018 10 16 0.00 0.00
3:53 pm 15:53 Partly Cloudy 74 23.3 59 15 60 60 VRB 3 6 30.04 1017 10 16 0.00 0.00
4:53 pm 16:53 Partly Cloudy 75 23.9 58 14.4 55 55 S 6 9 30.04 1017 10 16 0.00 0.00
5:53 pm 17:53 Partly Cloudy 77 25 58 14.4 52 52 SW 6 9 30.03 1017 10 16 0.00 0.00
6:53 pm 18:53 Partly Cloudy 76 24.4 57 13.9 52 52 SSE 7 11 30.03 1017 10 16 0.00 0.00
7:53 pm 19:53 Mostly Sunny 76 24.4 58 14.4 54 54 SE 6 9 30.02 1017 10 16 0.00 0.00
8:53 pm 20:53 Mostly Sunny 74 23.3 58 14.4 57 57 SSE 5 7 30.02 1017 10 16 0.00 0.00
9:53 pm 21:53 Mostly Clear 71 21.7 59 15 66 66 SSE 7 11 30.03 1017 10 16 0.00 0.00
10:53 pm 22:53 Mostly Clear 69 20.6 60 15.6 73 73 SSE 6 9 30.05 1018 10 16 0.00 0.00
11:53 pm 23:53 Clear 69 20.6 60 15.6 73 73 S 8 13 30.06 1018 10 16 0.00 0.00

Powered by AerisWeather